Regional Weather Roundup
Issued by NWS

Home | Current Version | Previous Version | Text Only | Print | Product List | Glossary Off
Versions: 1 2 3 4 5 6 7 8 9 10 11 12 13 14 15 16 17 18 19 20 21 22 23 24 25 26 27 28 29 30 31 32 33 34 35 36 37 38 39 40 41 42 43 44 45 46 47 48 49 50

000
ASUS43 KLSX 200057
RWRMO

WEATHER SUMMARY FOR MISSOURI
NATIONAL WEATHER SERVICE SPRINGFIELD MO
800 PM CDT THU OCT 19 2017

NOTE: "FAIR" INDICATES FEW OR NO CLOUDS BELOW 12,000 FEET WITH NO
       SIGNIFICANT WEATHER AND/OR OBSTRUCTIONS TO VISIBILITY.
       CURRENT SKY AND/OR WEATHER CONDITIONS ARE NOT AVAILABLE FOR
       CHILLICOTHE AND FARMINGTON.

MOZ001>031-035>038-043-044-053-054-200200-
...NORTHERN AND WESTERN MISSOURI...

CITY           SKY/WX    TMP DP  RH WIND       PRES   REMARKS
KANSAS CTY INT CLOUDY    62  53  72 S10       30.06R
ST JOSEPH      CLEAR     63  53  70 S5        30.04R
CHILLICOTHE      N/A     68  53  58 S5        30.08S

$$
MOZ066>068-077>081-088>096-101>105-200200-
...SOUTHWEST MISSOURI...

CITY           SKY/WX    TMP DP  RH WIND       PRES   REMARKS
SPRINGFIELD    CLOUDY    66  51  58 S10       30.13R
JOPLIN         CLOUDY    63  53  70 CALM      30.12R
BRANSON        PTCLDY    66  48  52 SE7       30.17R

$$
MOZ032>034-039>042-045>050-055>058-069>072-200200-
...CENTRAL MISSOURI...

CITY           SKY/WX    TMP DP  RH WIND       PRES   REMARKS
COLUMBIA       NOT AVBL
JEFFERSON CITY CLEAR     62  54  74 CALM      30.11S
SEDALIA        CLOUDY    65  54  67 SE6       30.12R
WARRENSBURG    CLOUDY    64  52  63 SE5       30.09R

$$
MOZ051-052-059>065-200200-
...EAST CENTRAL MISSOURI...

CITY           SKY/WX    TMP DP  RH WIND       PRES   REMARKS
ST LOUIS INTL  PTCLDY    69  52  54 SE9       30.15R

$$
MOZ072>076-082>087-097>100-106>115-200200-
...SOUTH CENTRAL AND SOUTHEAST MISSOURI...

CITY           SKY/WX    TMP DP  RH WIND       PRES   REMARKS
CAPE GIRARDEAU CLEAR     62  48  60 S8        30.19R
POPLAR BLUFF   CLEAR     61  53  75 SE3       30.18R
WEST PLAINS    CLEAR     66  47  50 S6        30.19R

$$



USA.gov is the U.S. government's official web portal to all federal, state and local government web resources and services.